Weather History for Kansas City International, MO

Change the Weather History Date:

Wednesday, March 6, 2013

  Actual Average Record
Temperature  
Mean Temperature 29 °F 40 °F  
Max Temperature 36 °F 51 °F 75 °F (1987)
Min Temperature 21 °F 30 °F 5 °F (1890)
Degree Days  
Heating Degree Days 36 25  
Month to date heating degree days 204 153  
Since 1 July heating degree days 3936 4198  
Cooling Degree Days 0 0  
Month to date cooling degree days 0 0  
Year to date cooling degree days 0 0  
Moisture  
Dew Point 18 °F    
Average Humidity 64    
Maximum Humidity 75    
Minimum Humidity 52    
Precipitation  
Precipitation 0.00 in 0.07 in 1.06 in (1892)
Month to date precipitation 0.02 0.39  
Year to date precipitation 2.91 2.92  
Snow  
Snow 0.00 in 0.10 in 3.20 in (1945)
Month to date snowfall T 0.5  
Since 1 July snowfall 25.2 16.7  
Snow Depth 2.00 in    
Sea Level Pressure  
Sea Level Pressure 30.39 in    
Wind  
Wind Speed 7 mph (NNE)    
Max Wind Speed 20 mph    
Max Gust Speed 24 mph    
Visibility 10 miles    
Events      
T = Trace of Precipitation, MM = Missing Value Source: NWS Daily Summary

Daily Weather History Graph

Daily Weather History Graph

Search for Another Location

Airport:

Trip Planner

Search our weather history database for the weather conditions in past years. The results will help you decide how hot, cold, wet, or windy it might be!

Date:

Astronomy

Mar. 06, 2013 Rise Set
Actual Time 6:43 AM CST 6:16 PM CST
Civil Twilight 6:17 AM CST 6:43 PM CST
Nautical Twilight 5:46 AM CST 7:14 PM CST
Astronomical Twilight 5:14 AM CST 7:45 PM CST
Moon 2:52 AM CST (3/6) 1:01 PM CST (3/6)
Length of Visible Light 12h 26m
Length of Day
11h 33m
Waning Crescent, 29% of the Moon is Illuminated
Mar 6
Waning Crescent
Mar 11
New
Mar 19
First Quarter
Mar 27
Full
Apr 2
Last Quarter

Hourly Weather History & Observations

Time (CST) Temp. Windchill Dew Point Humidity Pressure Visibility Wind Dir Wind Speed Gust Speed Precip Events Conditions
12:37 AM 26.6 °F 15.7 °F 17.6 °F 69% 30.35 in 10.0 mi NNW 12.7 mph - N/A   Overcast
12:53 AM 27.0 °F 15.2 °F 17.1 °F 66% 30.37 in 10.0 mi North 15.0 mph - N/A   Overcast
1:53 AM 27.0 °F 15.6 °F 17.1 °F 66% 30.39 in 10.0 mi NNW 13.8 mph 20.7 mph N/A   Overcast
2:53 AM 26.1 °F 15.0 °F 16.0 °F 66% 30.39 in 10.0 mi NNW 12.7 mph - N/A   Overcast
3:53 AM 26.1 °F 15.6 °F 16.0 °F 66% 30.40 in 10.0 mi North 11.5 mph - N/A   Overcast
4:53 AM 25.0 °F 15.5 °F 15.1 °F 66% 30.42 in 10.0 mi NNW 9.2 mph - N/A   Scattered Clouds
5:53 AM 21.9 °F 13.4 °F 14.0 °F 72% 30.43 in 10.0 mi NNW 6.9 mph - N/A   Partly Cloudy
6:53 AM 21.0 °F 14.6 °F 14.0 °F 74% 30.45 in 10.0 mi NNW 4.6 mph - N/A   Partly Cloudy
7:53 AM 23.0 °F 15.8 °F 15.1 °F 72% 30.45 in 10.0 mi North 5.8 mph - N/A   Partly Cloudy
8:53 AM 26.1 °F 15.0 °F 17.1 °F 69% 30.45 in 10.0 mi NNE 12.7 mph - N/A   Partly Cloudy
9:53 AM 27.0 °F 19.5 °F 17.1 °F 66% 30.46 in 10.0 mi North 6.9 mph - N/A   Mostly Cloudy
10:53 AM 30.0 °F - 18.0 °F 61% 30.45 in 10.0 mi Calm Calm - N/A   Mostly Cloudy
11:00 AM 30.2 °F 25.4 °F 17.6 °F 60% 30.42 in 10.0 mi North 4.6 mph - N/A   Scattered Clouds
11:53 AM 30.9 °F 26.2 °F 19.0 °F 61% 30.44 in 10.0 mi NNW 4.6 mph - N/A   Partly Cloudy
12:53 PM 32.0 °F - 18.0 °F 56% 30.43 in 10.0 mi Calm Calm - N/A   Partly Cloudy
1:53 PM 32.0 °F - 19.0 °F 59% 30.40 in 10.0 mi Calm Calm - N/A   Partly Cloudy
2:53 PM 33.1 °F - 19.0 °F 56% 30.38 in 10.0 mi Calm Calm - N/A   Clear
3:53 PM 36.0 °F - 19.0 °F 50% 30.36 in 10.0 mi Calm Calm - 0.00 in   Clear
4:53 PM 35.1 °F 31.0 °F 21.0 °F 57% 30.35 in 10.0 mi NE 4.6 mph - N/A   Partly Cloudy
5:53 PM 33.1 °F 27.7 °F 19.9 °F 59% 30.34 in 10.0 mi NE 5.8 mph - N/A   Partly Cloudy
6:53 PM 32.0 °F 25.6 °F 19.0 °F 59% 30.33 in 10.0 mi East 6.9 mph - N/A   Scattered Clouds
7:53 PM 30.9 °F 22.8 °F 19.0 °F 61% 30.32 in 10.0 mi East 9.2 mph - N/A   Scattered Clouds
8:53 PM 28.9 °F 20.4 °F 19.0 °F 67% 30.32 in 10.0 mi ESE 9.2 mph - N/A   Scattered Clouds
9:53 PM 28.0 °F 20.0 °F 19.0 °F 69% 30.32 in 10.0 mi ESE 8.1 mph - N/A   Scattered Clouds
10:53 PM 27.0 °F 18.0 °F 19.0 °F 72% 30.31 in 10.0 mi ESE 9.2 mph - N/A   Scattered Clouds
11:53 PM 26.1 °F 16.8 °F 18.0 °F 71% 30.31 in 10.0 mi ESE 9.2 mph - N/A   Scattered Clouds